Fort Lewis, WA

7:01 PM PST on January 22, 2018 (GMT -0800)
Gray Army Air Field

Weather History for KGRF - May, 2014

Change the Weather History Date:

Friday, May 16, 2014

  Actual Average Record
Temperature  
Mean Temperature 58 °F -  
Max Temperature 69 °F 63 °F 82 °F (2008)
Min Temperature 48 °F 43 °F 37 °F (2002)
Degree Days  
Heating Degree Days 7    
Growing Degree Days 8 (Base 50)    
Moisture  
Dew Point 48 °F    
Average Humidity 70    
Maximum Humidity 93    
Minimum Humidity 46    
Precipitation  
Precipitation 0.00 in - - ()
Sea Level Pressure  
Sea Level Pressure 30.10 in    
Wind  
Wind Speed 7 mph (South)    
Max Wind Speed 16 mph    
Max Gust Speed 18 mph    
Visibility 10 miles    
Events      
Averages and records for this station are not official NWS values.
T = Trace of Precipitation, MM = Missing Value Source: NWS Daily Summary

Daily Weather History Graph

Daily Weather History Graph

Search for Another Location

Airport or City:

Trip Planner

Search our weather history database for the weather conditions in past years. The results will help you decide how hot, cold, wet, or windy it might be!

Date:

Astronomy

May. 16, 2014 Rise Set
Actual Time 5:33 AM PDT 8:40 PM PDT
Civil Twilight 4:57 AM PDT 9:17 PM PDT
Nautical Twilight 4:10 AM PDT 10:04 PM PDT
Astronomical Twilight 3:12 AM PDT 11:02 PM PDT
Moon 10:52 PM PDT (5/16) 7:20 AM PDT (5/16)
Length of Visible Light 16h 20m
Length of Day
15h 07m
Waning Gibbous, 95% of the Moon is Illuminated
May 16
Waning Gibbous
May 21
Last Quarter
May 28
New
Jun 5
First Quarter
Jun 12
Full

Hourly Weather History & Observations

Time (PDT) Temp. Dew Point Humidity Pressure Visibility Wind Dir Wind Speed Gust Speed Precip Events Conditions
12:58 AM 54.3 °F 48.6 °F 81% 30.09 in 10.0 mi WSW 5.8 mph - N/A   Clear
1:58 AM 50.9 °F 47.8 °F 89% 30.10 in 10.0 mi SE 3.5 mph - N/A   Clear
2:58 AM 52.0 °F 47.7 °F 85% 30.09 in 10.0 mi SE 2.3 mph - N/A   Clear
3:58 AM 50.0 °F 47.1 °F 90% 30.09 in 10.0 mi SSE 4.6 mph - N/A   Clear
4:58 AM 49.3 °F 47.1 °F 92% 30.10 in 10.0 mi SSE 5.8 mph - N/A   Clear
5:58 AM 48.6 °F 46.8 °F 93% 30.11 in 10.0 mi SSE 5.8 mph - N/A   Clear
6:58 AM 51.3 °F 48.4 °F 90% 30.11 in 10.0 mi SSE 8.1 mph - N/A   Clear
7:58 AM 54.7 °F 49.1 °F 81% 30.12 in 10.0 mi SE 8.1 mph - N/A   Clear
8:37 AM 57.2 °F 50.0 °F 77% 30.12 in 10.0 mi East 5.8 mph - N/A   Partly Cloudy
8:58 AM 58.3 °F 49.6 °F 73% 30.13 in 10.0 mi East 6.9 mph - 0.00 in   Scattered Clouds
9:58 AM 59.7 °F 47.5 °F 64% 30.13 in 10.0 mi South 8.1 mph - 0.00 in   Overcast
10:58 AM 60.8 °F 47.7 °F 62% 30.13 in 10.0 mi SSW 11.5 mph - N/A   Overcast
11:58 AM 61.5 °F 48.7 °F 63% 30.13 in 10.0 mi South 9.2 mph - N/A   Overcast
12:58 PM 63.1 °F 48.2 °F 58% 30.12 in 10.0 mi SSE 11.5 mph - N/A   Mostly Cloudy
1:58 PM 64.8 °F 47.1 °F 53% 30.12 in 10.0 mi South 12.7 mph - N/A   Mostly Cloudy
2:58 PM 66.7 °F 46.0 °F 47% 30.10 in 10.0 mi Variable 2.3 mph - N/A   Mostly Cloudy
3:58 PM 67.1 °F 46.9 °F 48% 30.09 in 10.0 mi South 11.5 mph - N/A   Mostly Cloudy
4:10 PM 68.0 °F 46.4 °F 46% 30.07 in 10.0 mi SSW 11.5 mph 18.4 mph N/A   Scattered Clouds
4:58 PM 67.6 °F 46.6 °F 47% 30.07 in 10.0 mi South 11.5 mph - N/A   Partly Cloudy
5:58 PM 65.7 °F 48.4 °F 54% 30.07 in 10.0 mi West 16.1 mph - N/A   Mostly Cloudy
6:58 PM 63.1 °F 48.2 °F 58% 30.08 in 10.0 mi West 10.4 mph - N/A   Clear
7:58 PM 62.6 °F 48.0 °F 59% 30.08 in 10.0 mi WSW 6.9 mph - N/A   Clear
8:58 PM 59.0 °F 46.9 °F 64% 30.09 in 10.0 mi WSW 10.4 mph - N/A   Partly Cloudy
9:58 PM 56.5 °F 47.3 °F 71% 30.10 in 10.0 mi WSW 5.8 mph - N/A   Clear
10:53 PM 55.4 °F 48.2 °F 77% 30.09 in 10.0 mi SSE 4.6 mph - N/A   Mostly Cloudy
10:58 PM 53.8 °F 47.5 °F 79% 30.10 in 10.0 mi SSE 4.6 mph - N/A   Mostly Cloudy
11:58 PM 53.8 °F 48.2 °F 81% 30.10 in 10.0 mi SSE 5.8 mph - N/A   Overcast